GOES 1 (SMS-C) 1 08366U 75100A 09183.41436739 -.00000251 +00000-0 +10000-3 0 08750 2 08366 014.3616 347.7090 0002379 251.5528 108.4177 01.00287933123103 GOES 2 1 10061U 77048A 09182.61928623 .00000043 00000-0 10000-3 0 8991 2 10061 014.6532 356.1727 0016629 251.4293 108.3874 00.99397419 61944 GOES 3 1 10953U 78062A 09182.51170541 -.00000130 00000-0 10000-3 0 5507 2 10953 014.3657 359.9799 0003012 010.3276 349.6768 01.00266121 66815 GOES 6 1 14050U 83041A 09182.48458769 -.00000277 +00000-0 +10000-3 0 01709 2 14050 013.3577 019.2700 0001109 037.3930 322.6098 01.00272871153954 GOES 7 1 17561U 87022A 09184.61489661 .00000050 00000-0 10000-3 0 206 2 17561 012.1384 037.0590 0002716 180.7844 108.7618 01.00285355 65071 GOES 8 1 23051U 94022A 09182.70374140 .00000016 00000-0 10000-3 0 8488 2 23051 005.7870 073.4373 0005616 166.5995 193.2374 00.98903341 62864 GOES 9 1 23581U 95025A 09182.99483435 -.00000265 00000-0 10000-3 0 1298 2 23581 005.3477 070.4277 0004996 322.2087 037.5665 00.98803258 51579 GOES 10 1 24786U 97019A 09183.22324924 -.00000286 00000-0 10000-3 0 9847 2 24786 003.6696 074.3876 0002051 033.2422 192.8036 01.00278673 44650 GOES 11 1 26352U 00022A 09184.59505234 .00000093 00000-0 10000-3 0 3852 2 26352 000.4407 262.8093 0002004 270.8476 186.7644 01.00268125 33574 GOES 12 1 26871U 01031A 09184.36829697 -.00000249 00000-0 10000-3 0 1229 2 26871 000.0685 098.5079 0004681 348.9556 251.9532 01.00271523 29168 GOES 13 1 29155U 06018A 09184.38584122 -.00000083 +00000-0 +10000-3 0 06636 2 29155 000.1206 234.1707 0001695 306.8251 133.8857 01.00271757011415